This is the latest recevied weather packets stored in our database for station/object OZ1IEP-5. If no packets are shown the sender has not sent any weather packets the latest 10 day(s).
| Time | Temp. | Humidity | Pressure | Rain* | Wind** | Luminosity | Snow |
|---|---|---|---|---|---|---|---|
| 1787470210 | 13.89° C | 89% | 1011.9 hPa | 1.02 mm | - | 49 W/m² | - |
| 1787469606 | 13.89° C | 90% | 1011.7 hPa | 1.02 mm | - | 37 W/m² | - |
| 1787469006 | 13.89° C | 89% | 1011.5 hPa | 1.02 mm | - | 42 W/m² | - |
| 1787468410 | 13.89° C | 89% | 1011.4 hPa | 1.02 mm | - | 37 W/m² | - |
| 1787467806 | 14.44° C | 89% | 1011.4 hPa | 1.02 mm | - | 23 W/m² | - |
| 1787467207 | 15° C | 88% | 1011.3 hPa | 1.02 mm | - | 14 W/m² | - |
| 1787466611 | 15.56° C | 90% | 1010.9 hPa | 0 mm | - | 169 W/m² | - |
| 1787466007 | 15° C | 89% | 1010.8 hPa | 0 mm | - | 148 W/m² | - |
| 1787465406 | 15° C | 89% | 1010.7 hPa | 0 mm | - | 42 W/m² | - |
| 1787464810 | 15.56° C | 89% | 1010.5 hPa | 0 mm | - | 39 W/m² | - |
| 1787464206 | 15° C | 90% | 1010.7 hPa | 0 mm | - | 132 W/m² | - |
| 1787463607 | 14.44° C | 90% | 1010.7 hPa | 0 mm | - | 62 W/m² | - |
| 1787463010 | 14.44° C | 90% | 1010.6 hPa | 0 mm | - | 53 W/m² | - |
| 1787462406 | 14.44° C | 91% | 1010.6 hPa | 0 mm | - | 25 W/m² | - |
| 1787461807 | 14.44° C | 90% | 1010.4 hPa | 0 mm | - | 21 W/m² | - |
| 1787461209 | 14.44° C | 90% | 1010.4 hPa | 0 mm | - | 32 W/m² | - |
| 1787460606 | 14.44° C | 90% | 1010.4 hPa | 0 mm | - | 26 W/m² | - |
| 1787460006 | 14.44° C | 90% | 1010.4 hPa | 0 mm | - | 35 W/m² | - |
| 1787459408 | 14.44° C | 90% | 1010.3 hPa | 0 mm | - | 14 W/m² | - |
| 1787458807 | 14.44° C | 90% | 1010.3 hPa | 0 mm | - | 11 W/m² | - |
| 1787458206 | 14.44° C | 89% | 1010.2 hPa | 0 mm | - | 5 W/m² | - |
| 1787457609 | 14.44° C | 89% | 1010.2 hPa | 0 mm | - | 0 W/m² | - |
| 1787457009 | 14.44° C | 89% | 1010.2 hPa | 0 mm | - | 0 W/m² | - |
| 1787456406 | 14.44° C | 89% | 1010.2 hPa | 0 mm | - | 0 W/m² | - |
| 1787455809 | 14.44° C | 88% | 1010.2 hPa | 0 mm | - | 0 W/m² | - |
* Rain latest hour (hover to see other rain measurements)
** Current wind speed in m/s (hover to see current wind gust speed)